Holdingford, Minnesota
Current Conditions -  °F | °C
As of 5:37 AM on Tuesday 21 Oct 2014 (Local Time) from KLXL Reporting Station
Clear Clear  
Wind Chill: 37°   Ceiling: Unl
Heat Index: 37°   Visibility: 10mi
Dew Point: 34°   Wind: 3mph
Humidity: 87%   Direction: 100°E
Pressure: 30.14"   Gusts: NA
Location:  45.73°N, 94.47°W
Report Text: KLXL 211037Z AUTO 10003KT 10SM CLR 03/01 A3014 RMK AO2
Loading
Personal Weather Stations






























Interactive Weather Map
Tropical Storm Tracking
New forecast layout! Learn more

10-Day Weather Forecast

Advertisements
Track Severe Weather on mobile